{"data":{"norad_id":57051,"epoch":"2026-09-19T21:02:36.068640Z","epoch_age_seconds":171492,"freshness":"FRESH","line1":"1 57051U 23088D   26262.87680635  .00000266  00000+0  19195-4 0  9992","line2":"2 57051  43.0004  93.7584 0001911 249.8176 110.2470 15.27576999180033","mean_motion":15.27576999,"eccentricity":0.0001911,"inclination_deg":43.0004,"raan_deg":93.7584,"arg_perigee_deg":249.8176,"mean_anomaly_deg":110.247,"bstar":1.9195e-5,"rev_number":18003,"period_min":94.266933905307,"perigee_km":481.74690774777,"apogee_km":484.36925650816,"semimajor_km":6861.195082128,"source":"CELESTRAK","updated_at":"2026-09-21T09:00:33.548374Z"}}